When you browse on this site, cookies collect data to enhance your experience and personalize the content and advertising you see.
Visit our Privacy Policy to learn more. By continuing to use the site, you agree to this use of cookies and data.
  • In Netherlands
  • List of Countries
  • For 7 days
  • Water Temperature
  • Weather Map
  • Weather Widgets
  • user-avatar
    Login

    Hourly Weather Meusisha

    Today, 19 October, Saturday

    Time Temperature Precipitation Wind Pressure Humidity
    00:00 +11°C° 0 mm 1 mps 639 mmHg 55%
    01:00 +11°C° 0 mm 1 mps 639 mmHg 55%
    02:00 +10°C° 0 mm 1 mps 639 mmHg 54%
    03:00 +10°C° 0 mm 1 mps 639 mmHg 54%
    04:00 +10°C° 0 mm 1 mps 639 mmHg 53%
    05:00 +10°C° 0 mm 1 mps 639 mmHg 52%
    06:00 +10°C° 0 mm 1 mps 639 mmHg 52%
    07:00 +12°C° 0 mm 1 mps 640 mmHg 48%
    08:00 +13°C° 0 mm 1 mps 641 mmHg 45%
    09:00 +15°C° 0 mm 1 mps 642 mmHg 42%
    10:00 +16°C° 0 mm 1 mps 642 mmHg 43%
    11:00 +17°C° 0 mm 2 mps 642 mmHg 44%
    12:00 +17°C° 0 mm 2 mps 642 mmHg 45%
    13:00 +17°C° 0.1 mm 2 mps 642 mmHg 49%
    14:00 +16°C° 0.1 mm 2 mps 642 mmHg 54%
    15:00 +16°C° 0.1 mm 2 mps 641 mmHg 59%
    16:00 +14°C° 0.2 mm 1 mps 641 mmHg 66%
    17:00 +13°C° 0.2 mm 1 mps 641 mmHg 74%
    18:00 +10°C° 0.2 mm 0 mps 641 mmHg 82%
    19:00 +10°C° 0 mm 0 mps 641 mmHg 81%
    20:00 +10°C° 0 mm 0 mps 641 mmHg 80%
    21:00 +9°C° 0 mm 0 mps 641 mmHg 79%
    22:00 +9°C° 0 mm 0 mps 641 mmHg 78%
    23:00 +10°C° 0 mm 1 mps 641 mmHg 77%

    Tomorrow, 20 October, Sunday

    Time Temperature Precipitation Wind Pressure Humidity
    00:00 +10°C° 0 mm 1 mps 641 mmHg 75%
    01:00 +9°C° 0 mm 1 mps 641 mmHg 75%
    02:00 +9°C° 0 mm 1 mps 641 mmHg 74%
    03:00 +9°C° 0 mm 1 mps 641 mmHg 73%
    04:00 +9°C° 0 mm 1 mps 641 mmHg 73%
    05:00 +9°C° 0 mm 1 mps 641 mmHg 73%
    06:00 +8°C° 0 mm 1 mps 641 mmHg 72%
    07:00 +10°C° 0 mm 1 mps 642 mmHg 67%
    08:00 +12°C° 0 mm 1 mps 643 mmHg 62%
    09:00 +14°C° 0 mm 1 mps 643 mmHg 57%
    10:00 +14°C° 0 mm 2 mps 644 mmHg 57%
    11:00 +15°C° 0 mm 2 mps 644 mmHg 57%
    12:00 +14°C° 0 mm 3 mps 644 mmHg 57%
    13:00 +15°C° 0.1 mm 2 mps 644 mmHg 60%
    14:00 +14°C° 0.1 mm 2 mps 643 mmHg 64%
    15:00 +14°C° 0.1 mm 2 mps 643 mmHg 68%
    16:00 +12°C° 0.1 mm 1 mps 643 mmHg 76%
    17:00 +11°C° 0.1 mm 1 mps 642 mmHg 83%
    18:00 +8°C° 0.1 mm 0 mps 642 mmHg 91%
    19:00 +8°C° 0 mm 0 mps 642 mmHg 90%
    20:00 +8°C° 0 mm 0 mps 642 mmHg 90%
    21:00 +7°C° 0 mm 0 mps 642 mmHg 90%
    22:00 +7°C° 0 mm 0 mps 642 mmHg 89%
    23:00 +7°C° 0 mm 0 mps 642 mmHg 89%

    Day after tomorrow, 21 October, Monday

    Time Temperature Precipitation Wind Pressure Humidity
    00:00 +7°C° 0 mm 0 mps 642 mmHg 89%
    01:00 +7°C° 0 mm 0 mps 642 mmHg 88%
    02:00 +6°C° 0 mm 0 mps 642 mmHg 87%
    03:00 +6°C° 0 mm 0 mps 641 mmHg 86%
    04:00 +6°C° 0 mm 0 mps 641 mmHg 86%
    05:00 +6°C° 0 mm 0 mps 641 mmHg 85%
    06:00 +6°C° 0 mm 0 mps 641 mmHg 84%
    07:00 +8°C° 0 mm 1 mps 642 mmHg 78%
    08:00 +10°C° 0 mm 1 mps 643 mmHg 72%
    09:00 +12°C° 0 mm 1 mps 644 mmHg 65%
    10:00 +12°C° 0 mm 2 mps 644 mmHg 64%
    11:00 +13°C° 0 mm 2 mps 644 mmHg 63%
    12:00 +13°C° 0 mm 3 mps 644 mmHg 61%
    13:00 +13°C° 0 mm 2 mps 644 mmHg 64%
    14:00 +13°C° 0 mm 2 mps 643 mmHg 67%
    15:00 +12°C° 0 mm 2 mps 643 mmHg 70%
    16:00 +11°C° 0 mm 1 mps 643 mmHg 77%
    17:00 +9°C° 0 mm 1 mps 642 mmHg 84%
    18:00 +7°C° 0 mm 0 mps 642 mmHg 91%
    19:00 +7°C° 0 mm 0 mps 642 mmHg 90%
    20:00 +7°C° 0 mm 0 mps 642 mmHg 90%
    21:00 +7°C° 0 mm 0 mps 641 mmHg 89%
    22:00 +6°C° 0 mm 0 mps 641 mmHg 89%
    23:00 +6°C° 0 mm 0 mps 641 mmHg 88%

    22 October, Tuesday

    Time Temperature Precipitation Wind Pressure Humidity
    00:00 +6°C° 0 mm 0 mps 641 mmHg 88%
    01:00 +6°C° 0 mm 0 mps 641 mmHg 87%
    02:00 +6°C° 0 mm 0 mps 641 mmHg 86%
    03:00 +6°C° 0 mm 0 mps 640 mmHg 85%
    04:00 +6°C° 0 mm 0 mps 640 mmHg 84%
    05:00 +5°C° 0 mm 0 mps 640 mmHg 83%
    06:00 +5°C° 0 mm 0 mps 640 mmHg 82%
    07:00 +8°C° 0 mm 1 mps 641 mmHg 77%
    08:00 +10°C° 0 mm 1 mps 642 mmHg 72%
    09:00 +11°C° 0 mm 1 mps 643 mmHg 67%
    10:00 +12°C° 0 mm 2 mps 643 mmHg 66%
    11:00 +13°C° 0 mm 2 mps 643 mmHg 65%
    12:00 +13°C° 0 mm 2 mps 643 mmHg 63%
    13:00 +13°C° 0 mm 2 mps 643 mmHg 66%
    14:00 +12°C° 0 mm 2 mps 643 mmHg 69%
    15:00 +12°C° 0 mm 2 mps 642 mmHg 72%
    16:00 +11°C° 0 mm 1 mps 642 mmHg 79%
    17:00 +9°C° 0 mm 1 mps 642 mmHg 85%
    18:00 +7°C° 0 mm 0 mps 641 mmHg 92%
    19:00 +7°C° 0 mm 0 mps 641 mmHg 91%
    20:00 +6°C° 0 mm 0 mps 641 mmHg 90%
    21:00 +6°C° 0 mm 0 mps 641 mmHg 90%
    22:00 +6°C° 0 mm 0 mps 641 mmHg 89%
    23:00 +6°C° 0 mm 0 mps 641 mmHg 88%

    23 October, Wednesday

    Time Temperature Precipitation Wind Pressure Humidity
    00:00 +6°C° 0 mm 0 mps 641 mmHg 86%
    01:00 +7°C° 0 mm 1 mps 641 mmHg 84%
    02:00 +7°C° 0 mm 1 mps 641 mmHg 82%
    03:00 +7°C° 0 mm 1 mps 641 mmHg 79%
    04:00 +7°C° 0 mm 1 mps 640 mmHg 77%
    05:00 +6°C° 0 mm 1 mps 640 mmHg 76%
    06:00 +5°C° 0 mm 0 mps 640 mmHg 74%
    07:00 +8°C° 0 mm 1 mps 641 mmHg 68%
    08:00 +10°C° 0 mm 1 mps 642 mmHg 63%
    09:00 +12°C° 0 mm 1 mps 643 mmHg 58%
    10:00 +13°C° 0 mm 1 mps 643 mmHg 57%
    11:00 +13°C° 0 mm 2 mps 643 mmHg 57%
    12:00 +14°C° 0 mm 2 mps 643 mmHg 56%
    13:00 +14°C° 0 mm 2 mps 643 mmHg 59%
    14:00 +14°C° 0 mm 2 mps 643 mmHg 62%
    15:00 +13°C° 0 mm 2 mps 642 mmHg 65%
    16:00 +12°C° 0 mm 1 mps 642 mmHg 73%
    17:00 +10°C° 0 mm 1 mps 641 mmHg 81%
    18:00 +7°C° 0 mm 0 mps 641 mmHg 89%
    19:00 +7°C° 0 mm 0 mps 641 mmHg 88%
    20:00 +7°C° 0 mm 0 mps 641 mmHg 87%
    21:00 +7°C° 0 mm 0 mps 641 mmHg 85%
    22:00 +7°C° 0 mm 0 mps 641 mmHg 84%
    23:00 +7°C° 0 mm 0 mps 641 mmHg 83%

    24 October, Thursday

    Time Temperature Precipitation Wind Pressure Humidity
    00:00 +7°C° 0 mm 1 mps 641 mmHg 81%
    01:00 +7°C° 0 mm 1 mps 641 mmHg 79%
    02:00 +7°C° 0 mm 1 mps 641 mmHg 78%
    03:00 +7°C° 0 mm 1 mps 641 mmHg 76%
    04:00 +7°C° 0 mm 1 mps 641 mmHg 74%
    05:00 +7°C° 0 mm 1 mps 641 mmHg 71%
    06:00 +7°C° 0 mm 1 mps 641 mmHg 69%
    07:00 +9°C° 0 mm 1 mps 641 mmHg 64%
    08:00 +10°C° 0 mm 1 mps 642 mmHg 58%
    09:00 +12°C° 0 mm 1 mps 643 mmHg 53%
    10:00 +13°C° 0 mm 2 mps 643 mmHg 54%
    11:00 +14°C° 0 mm 2 mps 643 mmHg 54%
    12:00 +15°C° 0 mm 2 mps 643 mmHg 54%
    13:00 +14°C° 0 mm 2 mps 643 mmHg 59%
    14:00 +14°C° 0 mm 2 mps 643 mmHg 63%
    15:00 +13°C° 0 mm 2 mps 642 mmHg 67%
    16:00 +12°C° 0 mm 1 mps 642 mmHg 74%
    17:00 +10°C° 0 mm 1 mps 641 mmHg 81%
    18:00 +8°C° 0 mm 0 mps 641 mmHg 88%
    19:00 +8°C° 0 mm 0 mps 641 mmHg 87%
    20:00 +7°C° 0 mm 0 mps 641 mmHg 86%
    21:00 +7°C° 0 mm 0 mps 641 mmHg 85%
    22:00 +7°C° 0 mm 0 mps 641 mmHg 84%
    23:00 +7°C° 0 mm 0 mps 641 mmHg 83%
    Show more